Location: Newark
(23.3970°S, 47.6010°W)
Time: 09:52:08
(UTC+00:00)

deb Explorer IX - Pass Details

Date: 27 February 2020
Orbit: 547 x 1101 km, 38.8° (Epoch: 28 March)

Event Time Altitude Azimuth Distance (km) Brightness Sun altitude
Rises 23:05:49 0° 277° (W) 3,270 ? -19.7°
Reaches altitude 10° 23:08:20 10° 268° (W) 2,433 ? -20.2°
Maximum altitude 23:13:43 37° 201° (SSW) 1,407 ? -21.4°
Drops below altitude 10° 23:19:53 10° 136° (SE) 2,793 ? -22.7°
Enters shadow 23:20:08 - 135° (SE) 2,873 ? -22.8°
Sets 23:22:59 0° 127° (SE) 3,814 - -23.4°
